Date String (YYYY-MM-DD hh:mm:ss) UTC,Instrument flags,absolute air pressure of the measurement (hPa),sample flow rate (lpm),inlet stack bypass flow (lpm),air temperature of the measurement (°C),ambient temperature measured by the external sensor (°C),aerosol sample conditioner tube jacket temperature (°C),OPC LED temperature (°C),internal box temperature (°C),relative humidity of the measurement (%),span deviation,mass concentration of particles derived from Lorenz-Mie calculation of OPC scattering (μg/m³),mass concentration of particles derived from Lorenz-Mie calculation of OPC scattering (μg/m³),mass concentration of particles derived from Lorenz-Mie calculation of OPC scattering (μg/m³)
DateTimeUTC,F1_M11,P_M11,Q1_M11,Q2_M11,T1_M11,T2_M11,T3_M11,T4_M11,T5_M11,U1_M11,ZSPAN_M11,X0_M11,X2_M11,X1_M11
2023-10-28 14:00:00,SystemResetWarning,0831.5,5.00,000.00,021.8,020.5,000.0,030.2,023.3,14.5,0000.0,0012.29,0004.70,0003.81
2023-10-28 14:01:00,SystemResetWarning,0831.5,4.99,000.00,021.8,020.4,000.0,030.2,023.2,14.6,0000.0,0012.43,0004.68,0003.79
2023-10-28 14:02:00,SystemResetWarning,0831.5,5.01,000.00,021.7,020.4,000.0,030.2,023.2,14.6,0000.0,0012.24,0004.65,0003.76
2023-10-28 14:03:00,SystemResetWarning,0831.6,5.01,000.00,021.7,020.3,000.0,030.1,023.2,14.6,0000.0,0011.78,0004.61,0003.73
2023-10-28 14:04:00,SystemResetWarning,0831.6,5.01,000.00,021.8,020.6,000.0,030.1,023.4,14.7,0000.0,0011.02,0004.55,0003.69
2023-10-28 14:05:00,SystemResetWarning,0831.7,5.00,000.00,021.9,021.4,000.0,030.0,023.7,14.6,0000.0,0010.74,0004.50,0003.66
2023-10-28 14:06:00,SystemResetWarning,0831.8,5.00,000.00,022.0,022.0,000.0,030.1,023.9,14.5,0000.0,0009.87,0004.47,0003.62
2023-10-28 14:07:00,SystemResetWarning,0832.1,4.99,000.00,022.0,021.9,000.0,030.1,023.8,14.5,0000.0,0009.47,0004.44,0003.58
2023-10-28 14:08:00,SystemResetWarning,0832.0,4.99,000.00,022.0,021.7,000.0,030.2,023.7,14.6,0000.0,0009.50,0004.41,0003.55
2023-10-28 14:09:00,SystemResetWarning,0831.9,5.00,000.00,022.0,021.5,000.0,030.2,023.6,14.6,0000.0,0009.95,0004.45,0003.51
2023-10-28 14:10:00,SystemResetWarning,0831.9,5.01,000.00,022.0,021.4,000.0,030.2,023.6,14.6,0000.0,0010.85,0004.45,0003.46
2023-10-28 14:11:00,SystemResetWarning,0831.8,5.01,000.00,022.0,021.2,000.0,030.3,023.5,14.6,0000.0,0011.38,0004.44,0003.44
2023-10-28 14:12:00,SystemResetWarning,0831.9,5.00,000.00,022.0,021.1,000.0,030.3,023.5,14.6,0000.0,0011.11,0004.40,0003.42
2023-10-28 14:13:00,SystemResetWarning,0831.8,4.99,000.00,022.0,021.0,000.0,030.3,023.4,14.7,0000.0,0011.24,0004.43,0003.41
2023-10-28 14:14:00,SystemResetWarning,0831.8,5.00,000.00,021.9,020.9,000.0,030.3,023.4,14.7,0000.0,0011.04,0004.40,0003.41
2023-10-28 14:15:00,SystemResetWarning,0832.0,4.99,000.00,021.9,020.7,000.0,030.3,023.4,14.7,0000.0,0011.05,0004.42,0003.41
2023-10-28 14:16:00,SystemResetWarning,0831.9,5.00,000.00,021.9,020.6,000.0,030.3,023.3,14.7,0000.0,0010.87,0004.41,0003.41
2023-10-28 14:17:00,SystemResetWarning,0831.7,5.00,000.00,021.9,020.6,000.0,030.3,023.3,14.7,0000.0,0010.84,0004.38,0003.41
2023-10-28 14:18:00,SystemResetWarning,0831.7,5.00,000.00,021.8,020.5,000.0,030.3,023.3,14.7,0000.0,0010.30,0004.37,0003.40
2023-10-28 14:19:00,SystemResetWarning,0832.1,4.99,000.00,021.8,020.4,000.0,030.2,023.2,14.7,0000.0,0010.36,0004.39,0003.40
2023-10-28 14:20:00,SystemResetWarning,0831.8,5.00,000.00,021.8,020.3,000.0,030.2,023.1,14.6,0000.0,0010.18,0004.37,0003.41
2023-10-28 14:21:00,SystemResetWarning,0831.9,5.00,000.00,021.7,020.3,000.0,030.2,023.1,14.6,0000.0,0009.47,0004.33,0003.41
2023-10-28 14:22:00,SystemResetWarning,0831.9,5.00,000.00,021.7,020.2,000.0,030.2,023.1,14.6,0000.0,0008.73,0004.32,0003.40
2023-10-28 14:23:00,SystemResetWarning,0831.9,5.00,000.00,021.7,020.2,000.0,030.2,023.1,14.6,0000.0,0008.69,0004.34,0003.40
2023-10-28 14:24:00,SystemResetWarning,0831.9,5.01,000.00,021.7,020.6,000.0,030.1,023.4,14.5,0000.0,0008.75,0004.34,0003.40
2023-10-28 14:25:00,SystemResetWarning,0831.9,5.00,000.00,021.9,021.5,000.0,030.0,023.7,14.4,0000.0,0008.79,0004.37,0003.41
2023-10-28 14:26:00,SystemResetWarning,0831.9,4.99,000.00,022.0,021.9,000.0,030.1,023.8,14.3,0000.0,0008.74,0004.36,0003.41
2023-10-28 14:27:00,SystemResetWarning,0832.0,5.00,000.00,022.0,021.8,000.0,030.2,023.7,14.2,0000.0,0008.77,0004.36,0003.41
2023-10-28 14:28:00,SystemResetWarning,0832.0,5.00,000.00,022.0,021.6,000.0,030.2,023.6,14.2,0000.0,0008.91,0004.40,0003.41
2023-10-28 14:29:00,SystemResetWarning,0832.0,5.00,000.00,022.0,021.4,000.0,030.2,023.6,14.2,0000.0,0009.34,0004.48,0003.43
2023-10-28 14:30:00,SystemResetWarning,0832.0,5.00,000.00,022.0,021.3,000.0,030.2,023.5,14.2,0000.0,0009.40,0004.50,0003.44
2023-10-28 14:31:00,SystemResetWarning,0832.1,5.00,000.00,022.0,021.1,000.0,030.3,023.5,14.1,0000.0,0009.19,0004.49,0003.44
2023-10-28 14:32:00,SystemResetWarning,0832.1,5.00,000.00,021.9,021.0,000.0,030.3,023.4,14.1,0000.0,0009.46,0004.50,0003.43
2023-10-28 14:33:00,SystemResetWarning,0832.0,5.00,000.00,021.9,020.9,000.0,030.3,023.4,14.1,0000.0,0009.65,0004.49,0003.41
2023-10-28 14:34:00,SystemResetWarning,0832.0,5.00,000.00,021.9,020.8,000.0,030.3,023.4,14.1,0000.0,0009.72,0004.47,0003.40
2023-10-28 14:35:00,SystemResetWarning,0832.0,4.99,000.00,021.9,020.7,000.0,030.3,023.4,14.1,0000.0,0009.48,0004.43,0003.39
2023-10-28 14:36:00,SystemResetWarning,0832.0,5.00,000.00,021.9,020.6,000.0,030.3,023.3,14.1,0000.0,0009.38,0004.40,0003.39
2023-10-28 14:37:00,SystemResetWarning,0832.0,5.01,000.00,021.9,020.5,000.0,030.3,023.3,14.1,0000.0,0009.41,0004.40,0003.38
2023-10-28 14:38:00,SystemResetWarning,0832.0,5.01,000.00,021.8,020.5,000.0,030.3,023.3,14.1,0000.0,0009.45,0004.41,0003.38
2023-10-28 14:39:00,SystemResetWarning,0832.1,5.00,000.00,021.8,020.4,000.0,030.2,023.3,14.1,0000.0,0009.36,0004.37,0003.37
2023-10-28 14:40:00,SystemResetWarning,0832.1,5.00,000.00,021.8,020.4,000.0,030.2,023.3,14.1,0000.0,0008.95,0004.28,0003.36
2023-10-28 14:41:00,SystemResetWarning,0832.2,4.99,000.00,021.8,020.4,000.0,030.2,023.2,14.1,0000.0,0009.04,0004.22,0003.34
2023-10-28 14:42:00,SystemResetWarning,0832.2,5.00,000.00,021.8,020.4,000.0,030.2,023.2,14.2,0000.0,0008.98,0004.20,0003.32
2023-10-28 14:43:00,SystemResetWarning,0832.2,5.00,000.00,021.8,020.3,000.0,030.2,023.2,14.2,0000.0,0008.78,0004.14,0003.31
2023-10-28 14:44:00,SystemResetWarning,0832.2,5.01,000.00,021.8,020.3,000.0,030.2,023.2,14.2,0000.0,0008.46,0004.13,0003.31
2023-10-28 14:45:00,SystemResetWarning,0832.2,5.01,000.00,021.8,020.3,000.0,030.2,023.2,14.1,0000.0,0008.51,0004.13,0003.31
2023-10-28 14:46:00,SystemResetWarning,0832.2,4.99,000.00,021.7,020.3,000.0,030.2,023.2,14.1,0000.0,0008.60,0004.14,0003.32
2023-10-28 14:47:00,SystemResetWarning,0832.2,4.99,000.00,021.7,020.3,000.0,030.2,023.2,14.2,0000.0,0008.97,0004.15,0003.33
2023-10-28 14:48:00,SystemResetWarning,0832.2,4.99,000.00,021.7,020.3,000.0,030.1,023.2,14.2,0000.0,0009.58,0004.12,0003.32
2023-10-28 14:49:00,SystemResetWarning,0832.2,5.00,000.00,021.7,020.3,000.0,030.1,023.2,14.2,0000.0,0010.01,0004.10,0003.32
2023-10-28 14:50:00,SystemResetWarning,0832.3,5.01,000.00,021.7,020.3,000.0,030.1,023.2,14.2,0000.0,0010.31,0004.15,0003.32
2023-10-28 14:51:00,SystemResetWarning,0832.3,5.01,000.00,021.7,020.3,000.0,030.1,023.2,14.2,0000.0,0010.33,0004.15,0003.32
2023-10-28 14:52:00,SystemResetWarning,0832.3,5.00,000.00,021.8,020.8,000.0,030.0,023.5,14.2,0000.0,0010.08,0004.15,0003.34
2023-10-28 14:53:00,SystemResetWarning,0832.3,5.00,000.00,021.9,021.7,000.0,030.0,023.8,14.1,0000.0,0010.33,0004.15,0003.34
2023-10-28 14:54:00,SystemResetWarning,0832.3,4.99,000.00,022.0,021.8,000.0,030.1,023.8,14.0,0000.0,0010.29,0004.19,0003.35
2023-10-28 14:55:00,SystemResetWarning,0832.3,4.99,000.00,022.0,021.7,000.0,030.1,023.7,14.0,0000.0,0010.33,0004.22,0003.36
2023-10-28 14:56:00,SystemResetWarning,0832.3,5.00,000.00,022.0,021.5,000.0,030.2,023.6,14.0,0000.0,0010.60,0004.21,0003.37
2023-10-28 14:57:00,SystemResetWarning,0832.3,5.00,000.00,022.0,021.4,000.0,030.2,023.6,14.0,0000.0,0011.13,0004.18,0003.35
2023-10-28 14:58:00,SystemResetWarning,0832.3,5.01,000.00,022.0,021.2,000.0,030.2,023.5,14.0,0000.0,0011.38,0004.15,0003.35
2023-10-28 14:59:00,SystemResetWarning,0832.3,5.00,000.00,022.0,021.1,000.0,030.2,023.5,14.0,0000.0,0010.63,0004.15,0003.35
